Date String (YYYY-MM-DD hh:mm:ss) UTC,Instrument flags,Ambient pressure (hPa),Sample flow (lpm),Bypass flow (lpm),Sample temperature (°C),Ambient temperature (°C),ASC tube jacket temperature (°C),LED temperature (°C),Box temperature (°C),Sample RH (%),Span deviation,Mass concentration (μg/m³),Mass concentration (μg/m³),Mass concentration (μg/m³)
DateTimeUTC,F1_M11,P_M11,Q1_M11,Q2_M11,T1_M11,T2_M11,T3_M11,T4_M11,T5_M11,U1_M11,ZSPAN_M11,X0_M11,X2_M11,X1_M11
2023-03-11 11:00:00,,0813.5,5.00,0.00,22.4,20.7,00.0,31.2,24.2,20.8,-002.1,0015.92,0006.64,0006.17
2023-03-11 11:01:00,,0813.4,5.00,0.00,22.4,20.7,00.0,31.1,24.1,20.8,-001.8,0015.64,0006.53,0006.12
2023-03-11 11:02:00,,0813.3,5.00,0.00,22.3,20.5,00.0,31.1,24.1,20.8,-001.7,0014.84,0006.49,0006.08
2023-03-11 11:03:00,,0813.1,5.00,0.00,22.3,20.5,00.0,31.1,24.0,20.9,-001.7,0014.44,0006.45,0006.04
2023-03-11 11:04:00,,0813.1,5.01,0.00,22.3,20.5,00.0,31.1,24.0,20.9,-001.6,0013.88,0006.41,0006.01
2023-03-11 11:05:00,,0813.2,5.00,0.00,22.3,20.4,00.0,31.1,24.0,21.0,-001.5,0013.13,0006.40,0006.00
2023-03-11 11:06:00,,0813.3,4.99,0.00,22.2,20.4,00.0,31.1,23.9,21.1,-001.6,0011.76,0006.42,0006.02
2023-03-11 11:07:00,,0813.0,5.00,0.00,22.2,20.3,00.0,31.1,23.9,21.2,-001.6,0011.25,0006.41,0006.03
2023-03-11 11:08:00,,0813.0,5.01,0.00,22.2,20.2,00.0,31.0,23.8,21.3,-001.3,0011.28,0006.45,0006.08
2023-03-11 11:09:00,,0813.0,5.00,0.00,22.1,20.1,00.0,31.0,23.8,21.5,-001.3,0011.06,0006.50,0006.13
2023-03-11 11:10:00,,0813.0,5.00,0.00,22.1,20.0,00.0,31.0,23.7,21.6,-001.4,0010.82,0006.55,0006.16
2023-03-11 11:11:00,,0813.0,5.00,0.00,22.0,19.9,00.0,31.0,23.6,21.7,-001.4,0010.27,0006.57,0006.17
2023-03-11 11:12:00,,0813.0,5.00,0.00,22.0,19.9,00.0,30.9,23.6,21.8,-001.4,0010.15,0006.55,0006.14
2023-03-11 11:13:00,,0812.9,5.00,0.00,22.0,19.8,00.0,30.9,23.6,21.9,-001.5,0010.08,0006.52,0006.11
2023-03-11 11:14:00,,0813.0,5.01,0.00,21.9,19.8,00.0,30.9,23.6,22.0,-001.8,0010.29,0006.48,0006.08
2023-03-11 11:15:00,,0813.1,4.99,0.00,22.0,20.6,00.0,30.8,23.7,22.0,-002.1,0010.38,0006.48,0006.07
2023-03-11 11:16:00,,0813.4,5.00,0.00,22.1,21.8,00.0,30.8,24.0,21.9,-002.4,0010.40,0006.46,0006.04
2023-03-11 11:17:00,,0813.0,5.00,0.00,22.2,22.5,00.0,30.9,24.2,21.8,-002.7,0010.14,0006.38,0005.99
2023-03-11 11:18:00,,0813.1,5.00,0.00,22.2,22.1,00.0,30.9,24.1,21.8,-002.9,0010.06,0006.33,0005.94
2023-03-11 11:19:00,,0813.1,5.00,0.00,22.2,21.7,00.0,30.9,24.1,21.8,-003.1,0010.16,0006.28,0005.88
2023-03-11 11:20:00,,0813.1,4.99,0.00,22.2,21.2,00.0,30.9,23.9,21.8,-003.0,0010.15,0006.21,0005.80
2023-03-11 11:21:00,,0813.3,5.00,0.00,22.1,20.9,00.0,30.9,23.8,21.9,-003.3,0010.13,0006.11,0005.71
2023-03-11 11:22:00,,0813.3,5.00,0.00,22.1,20.7,00.0,30.9,23.7,22.0,-003.5,0010.22,0006.05,0005.65
2023-03-11 11:23:00,,0813.2,5.00,0.00,22.0,20.5,00.0,30.9,23.7,22.1,-003.7,0010.30,0006.01,0005.60
2023-03-11 11:24:00,,0813.2,5.01,0.00,22.0,20.3,00.0,30.9,23.6,22.1,-003.7,0010.65,0005.98,0005.55
2023-03-11 11:25:00,,0813.2,4.99,0.00,22.0,20.2,00.0,30.9,23.6,22.2,-003.6,0010.99,0005.92,0005.50
2023-03-11 11:26:00,,0813.2,4.99,0.00,21.9,20.2,00.0,30.8,23.5,22.2,-003.5,0010.83,0005.82,0005.41
2023-03-11 11:27:00,,0813.2,5.02,0.00,21.9,20.1,00.0,30.8,23.5,22.2,-003.1,0010.78,0005.76,0005.34
2023-03-11 11:28:00,,0813.2,5.02,0.00,21.9,20.0,00.0,30.8,23.5,22.2,-002.7,0010.76,0005.72,0005.29
2023-03-11 11:29:00,,0813.3,5.00,0.00,21.8,20.0,00.0,30.8,23.5,22.3,-002.4,0011.02,0005.69,0005.24
2023-03-11 11:30:00,,0813.2,5.00,0.00,21.8,20.0,00.0,30.8,23.4,22.3,-002.7,0011.11,0005.63,0005.18
2023-03-11 11:31:00,,0813.2,4.99,0.00,21.8,19.9,00.0,30.7,23.4,22.3,-002.8,0011.08,0005.59,0005.11
2023-03-11 11:32:00,,0813.2,4.98,0.00,21.8,19.8,00.0,30.7,23.4,22.3,-002.6,0011.06,0005.56,0005.05
2023-03-11 11:33:00,,0813.3,4.98,0.00,21.7,19.8,00.0,30.7,23.4,22.4,-002.8,0010.90,0005.47,0004.99
2023-03-11 11:34:00,,0813.3,5.01,0.00,21.7,19.8,00.0,30.7,23.3,22.4,-002.8,0010.75,0005.38,0004.92
2023-03-11 11:35:00,,0813.3,5.00,0.00,21.7,19.7,00.0,30.6,23.3,22.5,-002.6,0010.40,0005.30,0004.85
2023-03-11 11:36:00,,0813.2,5.00,0.00,21.7,19.7,00.0,30.6,23.3,22.6,-002.5,0009.79,0005.23,0004.78
2023-03-11 11:37:00,,0813.2,5.01,0.00,21.6,19.7,00.0,30.6,23.2,22.6,-002.7,0009.91,0005.18,0004.72
2023-03-11 11:38:00,,0813.2,5.02,0.00,21.6,19.7,00.0,30.6,23.2,22.7,-002.7,0009.57,0005.10,0004.66
2023-03-11 11:39:00,,0813.3,5.00,0.00,21.6,19.9,00.0,30.6,23.3,23.0,-003.2,0009.61,0005.06,0004.60
2023-03-11 11:40:00,,0813.4,5.00,0.00,21.7,21.1,00.0,30.5,23.6,23.0,-003.5,0009.20,0004.96,0004.52
2023-03-11 11:41:00,,0813.5,5.01,0.00,21.8,22.2,00.0,30.5,23.9,22.6,-003.2,0008.78,0004.89,0004.46
2023-03-11 11:42:00,,0813.6,4.97,0.00,21.9,22.2,00.0,30.6,23.9,22.5,-003.2,0008.64,0004.82,0004.41
2023-03-11 11:43:00,,0813.5,5.01,0.00,21.9,21.6,00.0,30.6,23.8,22.5,-003.4,0008.82,0004.77,0004.36
2023-03-11 11:44:00,,0813.6,5.00,0.00,21.9,21.2,00.0,30.6,23.6,22.5,-002.8,0009.68,0004.77,0004.33
2023-03-11 11:45:00,,0813.6,5.00,0.00,21.9,20.8,00.0,30.6,23.5,22.5,-002.7,0011.08,0004.78,0004.32
2023-03-11 11:46:00,,0813.6,5.01,0.00,21.8,20.6,00.0,30.6,23.5,22.5,-002.6,0011.02,0004.76,0004.30
2023-03-11 11:47:00,,0813.9,5.01,0.00,21.8,20.4,00.0,30.6,23.4,22.6,-002.7,0011.05,0004.78,0004.29
2023-03-11 11:48:00,,0814.2,5.01,0.00,21.7,20.2,00.0,30.6,23.3,22.7,-002.3,0010.91,0004.78,0004.28
2023-03-11 11:49:00,,0814.1,5.01,0.00,21.7,20.1,00.0,30.6,23.2,22.8,-002.3,0010.86,0004.77,0004.28
2023-03-11 11:50:00,,0814.2,5.00,0.00,21.6,20.0,00.0,30.5,23.1,22.9,-002.3,0010.72,0004.75,0004.29
2023-03-11 11:51:00,,0814.3,5.00,0.00,21.6,19.9,00.0,30.5,23.1,22.9,-002.4,0011.26,0004.77,0004.31
2023-03-11 11:52:00,,0813.9,5.00,0.00,21.6,19.8,00.0,30.5,23.1,23.0,-002.4,0011.35,0004.79,0004.34
2023-03-11 11:53:00,,0814.1,4.98,0.00,21.5,19.7,00.0,30.5,23.0,23.0,-002.4,0011.39,0004.80,0004.35
2023-03-11 11:54:00,,0814.1,4.99,0.00,21.4,19.6,00.0,30.4,22.9,23.1,-002.5,0011.01,0004.80,0004.38
2023-03-11 11:55:00,,0814.0,5.01,0.00,21.4,19.6,00.0,30.4,22.9,23.1,-002.9,0010.16,0004.79,0004.41
2023-03-11 11:56:00,,0814.2,5.00,0.00,21.4,19.5,00.0,30.4,22.8,23.2,-003.0,0008.85,0004.81,0004.43
2023-03-11 11:57:00,,0814.0,5.00,0.00,21.3,19.5,00.0,30.3,22.8,23.2,-003.1,0008.86,0004.84,0004.46
2023-03-11 11:58:00,,0814.3,4.99,0.00,21.3,19.4,00.0,30.3,22.8,23.2,-003.1,0008.73,0004.84,0004.49
2023-03-11 11:59:00,,0814.2,5.01,0.00,21.3,20.2,00.0,30.3,23.0,23.2,-003.2,0008.65,0004.85,0004.51
